San Diego, CA

8:40 PM PST on February 20, 2017 (GMT -0800)
Miramar Marine Corps Air Station-Mitscher

Weather History for KNKX - January, 2014

Change the Weather History Date:

Sunday, January 5, 2014

  Actual Average Record
Temperature  
Mean Temperature 60 °F -  
Max Temperature 75 °F 64 °F 84 °F (2006)
Min Temperature 44 °F 44 °F 39 °F (2000)
Degree Days  
Heating Degree Days 6    
Growing Degree Days 10 (Base 50)    
Moisture  
Dew Point 33 °F    
Average Humidity 48    
Maximum Humidity 93    
Minimum Humidity 16    
Precipitation  
Precipitation 0.00 in - - ()
Sea Level Pressure  
Sea Level Pressure 30.07 in    
Wind  
Wind Speed 6 mph (NNE)    
Max Wind Speed 12 mph    
Max Gust Speed -    
Visibility 10 miles    
Events      
Averages and records for this station are not official NWS values.
T = Trace of Precipitation, MM = Missing Value Source: NWS Daily Summary

Daily Weather History Graph

Daily Weather History Graph

Search for Another Location

Airport or City:

Trip Planner

Search our weather history database for the weather conditions in past years. The results will help you decide how hot, cold, wet, or windy it might be!

Date:

Astronomy

Jan. 05, 2014 Rise Set
Actual Time 6:51 AM PST 4:56 PM PST
Civil Twilight 6:24 AM PST 5:23 PM PST
Nautical Twilight 5:54 AM PST 5:54 PM PST
Astronomical Twilight 5:24 AM PST 6:24 PM PST
Moon 9:53 AM PST (1/5) 10:10 PM PST (1/5)
Length of Visible Light 10h 58m
Length of Day
10h 04m
Waxing Crescent, 25% of the Moon is Illuminated
Jan 5
Waxing Crescent
Jan 7
First Quarter
Jan 15
Full
Jan 23
Last Quarter
Jan 30
New

Hourly Weather History & Observations

Time (PST) Temp. Windchill Dew Point Humidity Pressure Visibility Wind Dir Wind Speed Gust Speed Precip Events Conditions
12:55 AM 46.9 °F - 44.1 °F 90% 30.01 in 7.0 mi East 4.6 mph - N/A   Scattered Clouds
1:55 AM 46.0 °F 42.5 °F 44.1 °F 93% 30.03 in 7.0 mi ENE 6.9 mph - N/A   Scattered Clouds
2:55 AM 45.0 °F 41.8 °F 41.0 °F 86% 30.03 in 7.0 mi NNE 5.8 mph - N/A   Scattered Clouds
3:55 AM 44.1 °F 42.5 °F 39.9 °F 85% 30.03 in 7.0 mi NE 3.5 mph - N/A   Scattered Clouds
4:55 AM 44.1 °F 39.5 °F 39.0 °F 82% 30.03 in 10.0 mi ENE 8.1 mph - N/A   Mostly Cloudy
5:55 AM 46.0 °F 41.9 °F 39.9 °F 79% 30.04 in 10.0 mi NE 8.1 mph - N/A   Partly Cloudy
6:55 AM 45.0 °F 42.6 °F 37.9 °F 76% 30.06 in 10.0 mi NE 4.6 mph - N/A   Partly Cloudy
7:55 AM 51.1 °F - 39.0 °F 63% 30.08 in 10.0 mi ENE 3.5 mph - N/A   Partly Cloudy
8:55 AM 64.9 °F - 35.1 °F 33% 30.09 in 10.0 mi Calm Calm - N/A   Partly Cloudy
9:55 AM 72.0 °F - 26.1 °F 18% 30.10 in 10.0 mi Calm Calm - N/A   Partly Cloudy
10:55 AM 73.0 °F - 27.0 °F 18% 30.09 in 10.0 mi NNW 5.8 mph - N/A   Partly Cloudy
11:55 AM 75.0 °F - 28.0 °F 18% 30.07 in 10.0 mi Variable 4.6 mph - N/A   Partly Cloudy
12:55 PM 73.9 °F - 25.0 °F 16% 30.05 in 10.0 mi NW 10.4 mph - N/A   Partly Cloudy
1:55 PM 73.9 °F - 30.0 °F 20% 30.04 in 10.0 mi NW 9.2 mph - N/A   Partly Cloudy
2:55 PM 70.0 °F - 46.0 °F 42% 30.05 in 10.0 mi WNW 9.2 mph - N/A   Partly Cloudy
3:55 PM 66.9 °F - 41.0 °F 39% 30.06 in 10.0 mi NNW 9.2 mph - N/A   Partly Cloudy
4:55 PM 63.0 °F - 36.0 °F 37% 30.08 in 10.0 mi NNW 4.6 mph - N/A   Partly Cloudy
5:55 PM 59.0 °F - 39.9 °F 49% 30.09 in 10.0 mi North 5.8 mph - N/A   Partly Cloudy
6:55 PM 48.9 °F - 35.1 °F 59% 30.11 in 10.0 mi ENE 5.8 mph - N/A   Clear
7:55 PM 54.0 °F - 30.9 °F 41% 30.11 in 10.0 mi East 8.1 mph - N/A   Clear
8:55 PM 51.1 °F - 24.1 °F 35% 30.12 in 10.0 mi East 5.8 mph - N/A   Clear
9:55 PM 52.0 °F - 21.9 °F 31% 30.13 in 10.0 mi East 6.9 mph - N/A   Clear
10:55 PM 54.0 °F - 10.9 °F 18% 30.12 in 10.0 mi NE 11.5 mph - N/A   Clear
11:55 PM 48.0 °F - 12.9 °F 24% 30.12 in 10.0 mi WNW 3.5 mph - N/A   Clear